Theta_e
296 296 296 296 296 296 296 296 296 296 296 296 296 295 296 296 296 296 297 297 297 297 298 298 299 299 299 300 301 301 302 302 303 303 304 304 304 305 309 311 310 310 312 315 317 318 320 321 322 322 323 325 328 333 338 340 340 340 341 342 343 344 344 344 343 343 344 342 342 343 344 344 344 344 344 344 344 343 343 343 343 343 343 342 341
295 295 295 295 295 296 295 295 295 295 295 294 295 294 294 295 295 295 295 295 295 296 296 297 297 298 298 299 299 300 300 301 302 302 303 303 304 304 307 309 311 310 310 311 314 317 318 319 321 323 323 324 325 329 333 336 340 341 341 342 342 343 343 344 344 344 342 342 342 342 343 344 343 343 343 344 343 343 344 343 343 343 342 342 341
295 295 294 294 295 295 294 295 294 294 294 294 294 294 294 294 295 294 294 294 294 295 295 295 296 296 297 297 298 298 298 299 299 301 301 302 303 303 305 307 309 309 309 310 312 313 315 317 319 320 322 323 323 324 326 330 333 337 340 341 342 343 342 343 344 344 343 343 342 342 342 343 343 343 343 343 343 343 343 343 343 342 342 341 341
295 295 294 294 294 293 294 294 293 294 293 293 293 294 294 295 295 295 294 295 294 294 295 294 294 295 296 295 296 296 296 297 298 299 300 301 301 302 303 304 306 308 309 309 311 312 313 314 315 317 319 322 323 323 323 323 328 334 337 340 341 342 342 341 341 343 343 343 342 342 342 342 342 342 343 343 343 342 342 342 343 342 341 341 340
294 294 293 293 293 293 293 293 293 293 293 293 294 294 294 294 294 294 294 294 293 294 295 294 294 294 295 295 295 295 296 296 296 297 298 299 299 299 300 302 303 305 307 308 309 310 311 312 313 315 317 318 321 323 323 322 323 329 334 337 339 341 339 339 341 342 343 343 343 342 342 342 342 342 341 342 343 342 341 342 342 341 341 340 339
293 293 293 292 293 292 292 292 293 292 292 293 292 293 292 293 293 292 293 292 292 293 292 292 293 293 294 294 295 295 295 295 296 296 297 297 299 299 299 300 300 301 303 305 308 309 309 310 311 312 314 316 318 321 323 323 323 322 324 331 335 337 340 341 339 341 342 342 342 342 342 342 342 342 341 341 342 342 341 341 341 341 341 340 339
293 292 292 292 291 291 292 292 292 292 291 292 292 292 292 292 292 291 291 291 292 292 292 291 292 291 292 293 293 294 294 294 295 296 296 297 297 298 299 299 300 300 302 301 302 306 309 309 310 311 312 313 314 317 319 320 323 325 326 326 330 336 337 339 338 339 340 341 341 341 341 342 342 342 342 342 342 341 341 341 340 341 340 340 339
293 292 291 291 291 291 291 291 291 291 291 291 292 291 291 291 292 291 290 290 290 290 291 290 291 291 292 292 292 292 292 293 294 295 296 297 297 298 298 299 300 300 301 300 300 301 305 307 307 309 310 310 312 313 316 318 319 321 321 323 331 336 336 338 339 339 339 339 340 340 341 341 341 341 342 341 342 341 341 340 340 340 340 339 339
292 292 291 291 291 290 291 291 291 290 290 290 290 291 290 291 290 291 291 289 289 289 290 290 289 290 290 291 291 292 292 293 293 294 296 295 296 297 298 299 300 301 300 301 301 302 304 307 309 308 308 308 309 311 313 315 317 319 322 322 322 323 328 335 337 338 337 339 340 341 341 341 341 341 341 341 341 341 340 340 339 339 339 339 338
292 292 291 291 290 290 290 290 290 290 289 290 290 290 291 290 289 290 290 289 288 288 288 288 289 289 289 290 290 291 292 293 293 295 294 295 295 297 297 298 299 300 300 301 301 301 302 303 306 308 307 308 309 310 311 313 315 317 319 321 323 323 322 325 332 335 337 337 339 340 340 340 340 341 341 341 341 341 341 340 339 339 339 339 338
292 291 291 290 290 290 290 290 290 289 289 289 289 289 290 290 289 288 289 289 288 288 288 288 288 288 288 289 289 291 292 293 294 294 294 295 295 297 299 297 298 299 300 301 301 301 302 302 302 302 303 305 309 309 310 312 313 314 317 319 322 324 323 322 326 332 336 337 337 339 340 340 340 341 341 341 341 341 341 340 340 339 339 339 339
291 291 290 290 290 290 289 290 289 289 288 288 288 288 288 288 288 287 287 288 289 288 289 288 287 287 287 289 290 291 291 292 292 293 294 295 296 296 296 298 298 299 300 301 301 301 301 302 302 302 302 304 307 309 308 309 310 311 312 315 317 320 324 324 323 328 331 335 336 336 337 340 340 340 341 341 341 341 341 340 339 339 339 339 339
291 291 290 290 289 289 289 289 289 289 288 287 288 288 288 287 287 287 287 286 287 288 288 288 286 286 288 287 287 289 290 291 291 292 293 294 296 297 298 298 298 299 299 299 300 300 300 300 301 301 302 302 303 305 308 310 309 312 314 315 317 319 321 323 324 326 329 332 335 335 334 338 339 340 341 340 341 341 342 341 340 340 339 339 339
291 290 290 289 288 288 288 288 288 288 288 288 287 287 287 287 288 286 288 286 285 287 288 287 285 283 282 283 286 289 290 290 290 292 294 295 297 298 298 297 297 298 298 297 298 299 300 300 301 301 301 302 303 304 305 305 307 312 314 316 318 320 322 324 323 326 326 330 333 335 335 335 339 340 341 341 342 341 342 342 340 340 340 339 339
291 290 289 289 288 288 287 288 288 287 286 286 287 287 287 287 287 286 285 286 286 288 288 288 283 284 284 283 282 281 286 289 293 295 292 291 291 290 291 292 293 294 295 295 295 296 297 298 299 300 300 300 300 301 301 300 301 306 311 311 311 313 316 322 326 327 328 327 331 334 335 334 336 338 340 341 341 341 341 342 340 339 339 339 339
290 290 289 289 288 288 287 287 287 287 287 286 286 286 287 287 287 286 285 283 285 285 287 287 286 283 280 281 280 282 280 285 284 286 288 288 289 290 292 293 293 294 294 294 295 296 297 297 298 298 299 299 299 300 300 301 301 301 301 302 304 309 312 316 324 328 328 328 329 332 334 335 337 336 336 339 341 341 341 341 340 340 339 338 338
290 290 289 288 288 288 287 287 286 287 286 285 285 286 287 287 286 285 285 284 283 284 285 286 286 287 283 280 280 279 280 281 282 282 287 288 289 289 289 290 290 292 292 293 294 294 295 295 296 296 297 298 299 299 299 299 300 300 300 300 303 307 307 314 321 326 328 329 329 330 332 334 335 336 337 338 340 340 341 341 341 339 338 337 338
289 289 288 288 287 287 287 286 286 286 286 286 286 286 286 286 286 286 285 285 284 283 283 286 286 286 286 284 283 279 278 280 280 277 284 286 286 288 289 289 290 289 290 291 292 293 294 294 296 296 297 298 299 298 298 299 300 301 302 304 308 307 308 311 315 320 327 329 328 328 328 331 334 335 333 338 339 341 341 339 339 339 339 338 336
289 288 288 288 287 287 286 286 286 286 286 285 285 285 285 286 286 285 285 285 284 282 282 283 284 285 286 285 284 284 284 280 277 279 277 282 285 285 286 288 288 289 290 291 292 292 293 294 294 294 295 296 296 296 296 297 298 298 299 300 304 306 305 305 308 311 314 318 324 327 329 329 332 335 335 336 337 338 339 340 338 339 339 338 338
288 288 287 287 286 286 286 286 285 286 285 285 284 285 285 286 285 285 285 284 284 282 282 283 281 282 284 283 284 284 284 283 283 280 278 276 278 284 286 286 287 288 289 289 290 291 291 292 293 294 294 295 296 296 296 297 298 298 298 301 305 306 306 306 307 308 309 311 316 322 326 330 331 335 336 335 336 336 337 340 340 339 338 336 337
288 287 287 286 286 285 285 285 285 285 285 285 285 285 285 284 284 284 284 284 284 283 282 282 282 281 281 282 283 282 283 283 283 282 279 277 277 279 280 285 286 286 287 289 290 290 291 291 292 293 293 293 294 295 295 296 296 297 298 301 304 306 307 309 309 309 308 309 312 315 322 329 330 332 336 334 333 338 335 337 337 337 339 338 338
287 287 286 286 285 285 285 285 284 284 284 284 284 284 284 284 284 284 284 283 283 283 282 282 282 282 282 281 280 280 281 281 281 281 280 280 277 278 279 280 280 284 287 287 288 289 290 291 291 292 292 293 294 294 295 296 297 299 299 300 302 304 305 307 308 309 310 311 311 312 315 318 328 331 332 335 334 335 336 332 336 339 338 339 338
286 286 286 286 285 285 284 284 284 284 284 283 283 283 283 283 283 283 283 282 282 282 282 282 282 282 281 281 280 280 279 278 279 280 280 279 278 279 280 281 280 280 283 286 286 287 288 289 289 290 291 292 293 294 295 297 296 297 298 300 302 303 304 305 304 304 307 310 312 311 312 313 316 322 330 332 334 334 333 335 334 335 337 338 337
285 285 285 285 284 284 284 284 283 283 283 284 283 283 283 283 282 282 282 282 282 281 281 281 281 281 281 281 281 281 281 280 280 280 279 279 279 278 278 279 279 280 282 283 284 284 285 287 288 289 290 291 292 293 294 294 294 295 295 297 301 303 304 304 304 306 307 307 307 308 310 313 316 319 322 327 331 335 336 333 335 334 335 337 337
284 284 285 285 284 284 283 283 283 283 283 283 283 283 282 282 282 281 281 281 281 281 280 280 280 280 280 281 281 281 280 281 281 280 280 280 279 277 278 279 276 277 279 281 280 283 284 285 287 288 289 289 291 292 293 293 293 294 295 296 300 301 302 304 304 305 305 305 305 306 306 308 310 313 317 323 328 331 335 335 335 335 333 339 337
284 284 284 284 284 283 283 282 282 282 282 282 282 282 282 281 281 280 280 281 281 280 280 280 280 280 280 279 279 279 280 280 280 280 279 278 277 277 276 277 277 276 278 279 280 279 281 285 286 287 288 288 289 290 291 291 292 293 294 293 296 299 301 303 304 304 303 304 305 306 305 305 307 308 310 316 325 329 331 334 337 336 336 337 339
283 283 284 283 283 282 282 282 282 282 282 281 282 281 281 281 280 280 280 280 280 279 279 279 279 279 279 279 279 279 279 280 280 279 280 279 278 277 276 274 274 276 276 278 279 278 279 281 283 283 285 286 287 288 290 291 292 293 293 294 295 296 299 302 303 303 304 304 304 305 305 306 307 308 309 311 315 324 330 332 334 336 333 332 336
283 283 283 282 281 281 281 281 281 281 281 281 280 280 280 279 279 279 279 280 279 279 279 279 278 279 278 279 278 278 279 279 279 279 279 279 279 278 278 276 274 272 275 274 275 276 280 278 281 283 283 285 286 288 289 290 290 291 290 291 293 295 298 300 302 302 303 303 305 305 305 305 306 307 308 309 311 315 320 323 325 326 326 327 329
282 282 281 281 281 280 280 280 280 280 280 280 280 279 279 279 278 278 278 279 278 278 278 278 278 278 278 278 278 278 278 279 279 279 279 279 279 278 278 277 276 273 271 271 273 274 276 279 276 279 282 283 285 287 287 288 290 290 291 291 292 292 294 298 300 301 302 303 304 304 304 306 306 307 307 309 311 314 318 321 322 324 325 325 329
281 281 281 280 280 280 279 279 279 279 279 279 279 279 278 278 278 278 278 278 277 277 278 277 277 277 277 277 277 277 278 278 278 278 278 279 279 279 278 278 277 274 272 271 271 274 274 277 277 277 279 281 283 284 285 285 288 288 288 289 291 293 295 296 299 301 302 304 305 305 305 306 308 307 307 308 310 313 317 319 320 322 324 325 328
280 280 279 279 279 279 279 278 278 278 278 278 278 278 277 277 277 277 277 277 276 276 276 276 276 276 276 276 276 276 277 277 277 277 278 278 277 277 277 277 276 275 273 272 270 273 276 273 276 278 279 279 280 280 282 283 285 286 286 287 288 290 292 296 298 301 302 302 303 303 303 303 303 304 308 309 310 313 316 319 319 320 323 324 327
280 280 279 279 278 278 278 278 277 277 277 277 277 277 276 276 275 275 276 275 275 274 274 275 275 275 275 274 275 275 275 275 275 276 276 277 277 276 276 276 275 275 274 273 271 271 275 275 276 277 278 277 278 278 279 281 283 285 285 287 288 289 291 293 296 299 300 301 302 303 302 302 303 303 304 307 312 313 315 317 318 320 322 323 324
279 279 278 278 278 277 277 277 276 276 276 276 276 276 275 274 275 274 274 274 273 273 274 273 274 274 274 273 273 274 274 274 274 275 275 275 275 275 275 275 274 275 274 273 271 271 273 276 275 275 277 278 278 280 280 281 282 283 285 285 286 287 288 289 292 295 298 300 300 301 302 302 304 304 305 305 309 313 314 318 320 319 321 323 324
278 278 277 277 277 276 276 275 275 275 275 275 275 274 274 274 273 274 273 273 273 272 273 272 273 273 273 273 273 273 274 274 274 274 274 273 274 273 274 274 273 274 274 273 272 271 270 274 275 276 276 277 276 278 278 279 281 283 283 284 286 287 287 288 290 294 297 299 301 302 303 304 304 305 306 306 308 312 315 316 317 317 317 320 320
278 277 276 276 276 275 275 274 274 274 274 274 274 273 273 273 272 272 273 272 272 271 271 272 272 272 272 272 272 273 274 274 275 275 273 273 273 273 273 273 273 273 274 274 272 270 271 271 274 274 274 276 276 276 278 280 282 283 284 284 285 287 289 290 291 293 297 299 301 302 303 304 304 305 306 307 308 310 312 314 315 315 316 318 318
276 276 276 275 275 274 273 273 273 273 273 273 273 273 273 272 272 272 272 272 272 272 271 271 272 272 271 271 271 272 273 273 273 272 272 272 272 272 272 272 272 272 273 273 273 272 272 271 272 273 274 274 276 278 279 280 280 281 282 285 287 288 290 292 293 293 295 299 300 301 302 303 303 304 305 306 308 309 311 312 313 314 315 315 315
275 275 274 274 273 273 272 273 273 273 273 273 272 272 272 272 272 272 272 272 272 271 271 272 272 271 271 271 272 273 273 272 271 271 271 271 272 272 271 272 272 272 273 273 273 273 272 271 272 274 275 276 277 278 279 279 280 282 283 283 284 287 290 292 293 294 295 297 299 299 300 301 302 303 304 305 307 309 311 312 313 313 313 314 313
274 274 273 273 273 272 272 272 272 272 272 272 272 272 272 272 272 272 272 272 272 272 272 272 272 272 272 273 273 272 272 271 270 271 271 271 271 271 271 271 272 272 272 272 273 273 273 272 273 273 274 274 274 275 277 277 277 279 282 283 285 287 288 290 292 294 295 297 297 298 298 299 299 301 302 304 306 309 310 311 312 312 311 310 311
273 272 272 272 272 272 272 272 272 272 272 272 272 272 272 272 272 272 272 272 272 272 272 272 273 273 273 272 272 272 272 271 271 271 271 271 271 271 272 272 272 272 272 272 272 272 272 272 272 273 273 274 275 274 277 279 278 278 277 280 283 287 288 289 290 292 295 296 297 298 298 299 300 302 302 302 304 307 309 311 311 311 310 308 310
272 271 271 271 271 272 271 271 272 272 272 272 272 272 272 272 272 272 272 272 272 272 273 273 273 273 273 273 273 273 272 272 272 272 272 271 272 271 272 272 272 272 271 272 272 272 271 271 271 271 273 273 274 276 278 278 278 278 279 279 279 282 286 289 291 291 293 294 295 296 298 299 300 301 302 304 305 306 308 309 309 309 307 307 309
271 271 271 271 270 270 271 271 271 272 272 272 272 272 271 271 272 272 273 273 273 273 273 273 274 274 274 274 274 274 274 276 276 276 276 276 272 271 272 273 272 272 272 272 271 272 271 271 271 272 272 272 273 274 274 276 277 277 280 282 283 285 288 288 290 293 293 293 294 295 295 297 298 301 304 305 307 306 307 306 309 305 306 307 309
270 270 270 270 270 270 270 271 271 272 271 272 272 274 274 273 273 273 274 273 273 273 273 273 274 274 275 275 275 278 278 278 278 279 279 279 279 277 274 273 273 272 272 271 271 271 271 270 271 271 271 271 272 273 274 275 277 280 280 281 282 285 287 287 289 290 293 294 293 293 295 298 298 299 303 306 310 307 310 310 313 311 307 308 309
269 269 269 269 269 270 271 271 270 271 271 271 273 274 275 276 275 274 273 274 274 274 274 274 274 274 275 275 275 276 277 277 276 278 279 280 280 280 280 279 278 275 273 272 271 272 271 271 272 272 272 272 273 274 274 275 276 278 279 281 283 285 285 285 284 288 293 293 293 292 294 297 298 297 300 304 309 311 311 312 309 308 308 309 309
268 268 268 269 270 270 270 270 270 270 270 272 274 275 276 276 276 275 274 274 274 274 274 274 274 274 274 274 274 275 275 275 275 275 276 278 279 279 280 280 280 281 281 277 274 273 273 272 272 273 273 273 273 275 275 276 276 277 278 280 282 284 285 285 285 285 291 293 289 288 288 292 296 297 300 304 308 312 313 311 308 308 309 309 309
268 268 268 269 269 270 269 269 269 269 270 272 273 274 275 276 277 277 275 275 274 274 274 274 274 274 274 273 274 274 274 277 276 275 274 274 277 278 278 279 279 280 281 281 281 278 277 275 274 274 275 275 275 276 277 277 278 277 278 278 280 283 285 285 286 286 288 290 288 286 285 289 293 294 297 302 308 312 313 309 308 308 309 309 308
267 267 268 268 268 268 269 268 268 269 269 271 273 274 276 276 277 277 275 275 274 274 274 274 274 274 274 273 273 273 274 274 275 275 274 274 274 274 274 274 275 276 279 280 280 280 280 277 276 275 277 278 276 277 278 279 277 277 278 278 280 280 282 284 287 287 289 289 286 286 285 288 291 293 294 300 307 312 314 311 308 308 309 309 308
267 267 267 268 268 268 267 267 267 267 268 271 273 275 275 276 277 277 274 274 273 273 274 274 274 274 274 274 274 273 274 274 275 275 275 275 274 274 274 274 275 275 276 276 276 277 277 277 277 277 277 278 278 278 279 279 278 278 278 279 280 282 283 285 286 287 287 288 288 287 283 288 293 293 294 298 305 311 314 311 308 307 308 308 308
267 267 267 267 267 266 266 266 266 266 268 271 273 274 275 276 277 274 273 273 273 273 273 274 274 274 274 274 274 274 274 274 276 279 278 276 275 274 274 274 274 275 276 278 280 281 279 278 278 278 278 278 280 279 279 278 278 279 280 280 281 282 282 282 281 285 285 288 289 289 286 287 291 292 293 298 305 310 313 313 308 307 308 307 307
266 266 266 266 266 266 266 266 266 266 266 269 272 274 275 276 275 273 273 272 272 272 273 273 274 274 274 275 274 274 274 274 277 279 279 279 275 274 274 274 275 275 275 277 280 281 282 282 282 282 282 283 283 283 283 284 282 281 279 278 278 281 280 280 281 283 284 287 288 289 287 286 289 291 292 296 302 308 311 312 312 307 307 307 307
265 266 266 265 266 266 266 265 266 265 266 269 273 274 275 275 275 273 272 272 272 272 273 273 274 274 275 277 276 274 273 273 277 279 279 278 275 275 274 274 274 274 275 277 278 279 281 282 282 283 283 282 283 284 284 284 284 283 280 277 279 281 280 281 281 283 284 286 286 288 285 285 288 290 291 294 300 304 309 311 311 309 305 306 306
265 265 265 265 265 265 266 266 267 267 267 269 272 273 274 275 274 273 272 272 271 272 272 272 274 274 274 275 276 275 275 275 278 279 279 277 275 274 274 274 273 273 275 277 277 277 278 278 278 279 279 281 280 280 280 283 283 283 281 281 282 281 280 281 283 283 281 283 286 288 285 287 288 290 292 294 298 302 307 308 307 309 309 309 309
Wind_Speed
4 4 4 4 4 5 5 5 5 5 6 6 6 7 6 6 6 7 6 7 7 7 7 7 7 7 7 8 8 8 8 8 8 8 8 8 8 9 12 13 16 18 19 21 22 23 22 22 23 24 25 24 23 23 24 23 23 23 23 22 22 21 19 18 18 19 18 23 24 23 23 22 23 22 23 23 23 23 25 23 24 24 23 23 22
4 4 4 4 4 4 4 4 5 5 6 6 6 6 6 6 6 6 7 7 7 6 7 7 7 7 7 7 7 8 8 8 9 8 9 9 9 9 12 12 13 18 19 21 22 22 22 22 22 23 24 25 24 23 23 24 23 22 23 23 23 22 20 18 19 20 19 20 22 22 24 24 24 25 25 26 27 27 25 26 25 23 21 19 21
3 3 3 3 3 4 4 5 5 5 5 6 5 6 6 5 6 6 6 6 6 6 6 7 7 7 7 7 7 8 8 8 8 9 9 9 9 10 11 14 14 16 18 20 21 22 23 23 23 22 23 25 25 25 24 24 24 24 23 23 24 23 22 19 19 20 20 20 22 22 23 24 24 24 23 24 26 28 29 27 25 25 22 25 23
3 2 3 3 3 4 4 4 4 4 5 5 6 6 6 5 5 5 6 6 6 6 6 6 7 7 7 8 8 8 8 8 9 9 9 9 9 10 10 10 13 14 16 19 21 22 23 23 23 22 23 24 25 26 24 24 24 24 24 24 24 25 22 21 20 20 21 21 23 23 24 23 23 21 20 22 24 26 28 29 27 25 27 25 23
2 3 3 3 3 4 4 4 4 4 5 6 7 6 5 5 5 5 5 5 6 6 6 6 7 7 7 8 8 8 8 8 9 9 9 9 10 10 10 10 11 13 15 17 19 21 22 22 22 22 22 23 24 25 25 25 24 24 24 24 24 24 25 25 21 19 21 22 23 22 23 23 23 22 24 26 26 29 31 31 28 27 29 27 26
3 2 3 3 3 3 3 4 3 5 6 5 5 5 5 5 5 5 5 6 6 6 6 7 7 7 7 8 7 8 8 9 10 10 9 9 10 10 10 10 9 10 9 13 15 16 21 22 21 22 22 22 22 24 25 25 25 25 25 25 25 25 25 25 25 22 22 24 23 22 23 22 23 23 24 28 28 28 31 30 29 27 23 24 25
2 2 2 2 3 3 3 3 3 5 5 5 5 5 5 5 5 6 6 6 6 7 7 7 8 9 8 7 8 9 9 9 10 10 10 10 10 10 10 10 9 9 8 9 10 13 14 17 19 20 21 22 22 23 25 25 25 25 25 25 25 26 26 26 25 24 23 24 23 24 24 24 24 24 26 27 24 23 26 26 28 28 23 25 26
0 0 2 2 2 3 4 4 5 5 5 5 5 5 5 5 5 5 6 7 7 7 7 8 8 8 8 8 9 10 10 10 10 10 10 10 10 10 9 10 9 9 9 10 10 11 15 16 19 20 21 21 23 23 24 26 26 26 27 26 26 26 26 27 26 26 24 21 21 23 24 24 24 25 26 25 23 25 27 28 28 27 26 26 26
1 1 2 2 2 3 4 4 5 5 5 6 5 5 5 5 6 5 6 7 8 9 8 8 8 9 9 10 10 10 10 10 11 10 9 10 11 11 10 9 9 10 9 9 9 9 11 13 14 17 18 19 21 23 24 25 26 26 26 27 27 27 26 26 27 27 24 21 22 24 24 24 25 25 26 24 24 26 28 28 28 27 28 23 24
1 1 2 3 3 4 5 5 5 5 6 6 6 6 6 5 6 6 6 7 7 8 9 9 8 9 10 11 11 10 10 11 11 10 10 11 10 10 10 9 9 9 9 9 9 10 9 12 15 16 17 18 21 22 23 24 25 26 26 27 27 28 27 27 27 26 24 24 22 23 24 24 26 26 26 25 25 26 28 30 27 29 27 24 26
1 1 2 3 4 4 4 4 4 5 6 6 6 6 6 5 7 8 7 7 8 8 9 9 9 10 11 13 12 12 11 10 10 10 11 11 10 9 8 10 10 10 10 10 9 9 9 9 9 8 9 13 15 19 20 22 23 23 25 26 27 28 28 27 27 27 25 25 23 24 24 24 25 27 26 26 26 27 29 33 34 33 31 30 27
1 1 2 3 4 4 4 4 4 5 5 6 6 6 6 8 8 8 9 8 7 7 8 9 10 12 13 11 10 12 14 12 13 13 11 10 9 9 9 9 9 8 8 8 8 9 9 9 9 9 9 11 15 16 20 21 21 23 25 26 27 28 29 28 27 28 26 25 26 25 27 24 26 26 27 26 26 27 29 30 27 25 27 28 28
2 3 3 4 4 4 4 4 4 5 6 6 7 7 7 7 7 7 8 8 7 6 7 8 10 11 8 11 12 13 14 13 14 14 11 9 7 8 8 8 8 8 8 7 9 9 9 10 9 9 9 8 9 14 15 17 18 21 25 25 25 26 28 29 29 27 27 27 25 26 28 28 26 27 28 29 26 27 27 28 34 34 33 29 28
3 4 4 4 4 4 4 4 4 5 6 7 8 8 8 7 6 7 6 7 7 7 7 6 7 8 14 14 9 6 8 11 12 10 8 6 5 7 8 10 10 9 9 10 10 10 10 9 9 9 10 10 9 8 9 10 12 17 22 21 21 23 26 28 29 29 28 29 26 26 28 29 28 27 26 24 25 25 24 27 31 33 36 35 39
5 4 4 4 4 4 5 4 5 5 6 7 7 8 7 7 7 6 7 6 7 6 5 3 7 8 10 11 11 16 6 4 3 3 8 10 12 15 13 13 13 11 10 10 10 10 10 9 10 10 10 11 11 10 10 11 14 14 13 18 22 26 28 29 30 30 30 29 30 28 27 28 30 29 28 26 27 29 29 27 30 32 34 37 38
5 5 4 4 5 4 4 5 5 5 6 7 7 8 7 6 6 6 6 8 6 6 4 5 4 7 8 6 12 9 14 3 10 12 9 16 13 11 8 8 10 11 10 11 10 10 9 9 11 11 11 12 11 12 12 11 15 17 21 23 26 31 32 30 29 32 33 32 31 30 29 27 26 28 29 27 26 29 29 28 30 34 33 35 29
5 5 5 5 4 4 5 5 5 6 6 7 7 7 6 6 7 6 6 7 8 6 6 5 5 3 4 7 7 6 7 14 16 16 6 6 7 11 13 14 12 10 10 10 10 11 11 11 12 12 12 12 11 11 12 13 12 12 15 19 21 23 26 26 29 30 33 34 34 32 30 29 28 29 30 29 28 27 29 26 27 31 35 31 29
5 5 5 5 5 5 5 5 6 6 6 7 7 7 7 7 6 6 7 7 7 8 7 4 4 4 6 7 7 8 13 14 9 14 10 9 14 7 9 10 10 12 11 12 12 12 10 12 11 12 12 11 11 11 13 14 14 12 11 11 14 17 20 24 29 29 29 32 35 33 32 32 31 28 33 30 30 28 29 29 32 35 34 35 35
5 6 6 6 5 5 5 6 7 7 7 7 7 8 7 6 5 6 6 6 6 8 7 6 5 5 6 8 10 10 10 10 11 13 18 12 6 8 10 9 11 12 12 11 11 10 10 11 14 14 13 13 14 15 13 14 17 18 20 22 21 24 28 28 29 31 34 33 31 31 34 33 32 31 32 33 30 30 30 28 32 32 35 35 34
6 6 6 6 5 5 6 6 7 8 7 7 7 7 6 6 6 7 7 6 7 7 7 6 6 6 5 7 9 10 11 12 13 11 14 18 23 5 8 9 10 11 12 13 13 12 13 11 13 14 13 12 11 13 13 13 14 16 15 19 20 24 28 28 27 29 29 30 35 33 33 36 37 33 31 33 32 32 30 29 32 33 32 32 35
6 6 6 6 5 5 6 7 7 8 7 7 7 7 8 8 8 7 7 7 6 7 7 7 6 7 7 8 8 9 9 10 10 11 11 13 20 19 17 9 11 14 13 13 13 12 13 15 14 14 14 16 15 14 15 16 14 14 16 20 21 22 22 21 22 24 27 28 30 33 32 34 37 36 33 31 34 31 30 31 33 33 38 41 41
6 7 6 6 6 6 6 7 8 8 7 7 7 8 8 8 8 7 7 8 7 7 7 7 7 7 8 8 8 8 9 9 9 10 13 13 16 20 19 20 20 11 7 10 12 13 13 14 15 15 14 13 14 14 14 15 14 12 14 20 20 20 21 21 22 23 24 27 27 28 32 31 35 37 37 33 34 34 30 33 36 36 37 39 43
5 5 6 5 5 6 6 7 7 7 7 7 7 7 7 6 7 8 8 9 7 8 8 9 8 9 9 9 9 9 9 9 10 10 11 12 13 17 18 18 20 24 9 4 10 14 13 13 14 14 14 12 12 13 13 13 15 16 21 23 22 21 22 28 32 31 27 26 26 27 29 29 30 34 38 40 35 34 34 32 35 37 42 43 41
5 4 4 4 5 5 6 7 7 7 7 6 6 6 6 6 6 7 7 7 8 8 8 9 10 9 10 9 10 10 11 11 11 11 11 13 14 17 16 15 19 19 15 11 12 15 14 15 14 13 13 13 14 14 15 15 17 26 23 25 25 26 27 30 28 24 23 24 25 25 26 26 25 28 34 37 39 36 32 33 36 38 38 41 38
5 4 4 5 4 5 5 6 6 6 6 6 6 7 7 6 7 8 8 9 8 8 8 9 10 10 9 9 10 10 11 11 11 12 12 13 14 16 16 14 18 20 18 14 13 11 12 13 11 11 12 13 14 14 14 15 16 20 23 19 24 23 24 23 23 23 24 26 27 28 29 30 30 27 31 36 39 40 36 32 32 35 43 40 42
4 4 3 3 4 4 5 6 7 7 7 7 7 7 7 7 7 8 9 8 8 9 10 11 11 12 11 11 11 11 12 11 12 12 13 13 14 15 15 13 15 19 17 16 15 14 12 8 9 12 12 14 15 16 16 17 18 21 24 23 23 26 25 25 26 28 29 28 27 28 28 29 32 31 28 33 39 41 40 35 32 34 37 42 41
4 4 3 4 4 5 6 7 7 7 7 7 6 7 7 7 7 8 8 7 8 9 9 10 11 12 13 12 12 12 12 12 12 13 12 13 14 13 13 18 17 15 18 15 17 18 18 11 12 14 14 14 14 15 16 15 17 20 18 16 17 26 27 26 28 28 26 27 28 30 32 31 30 32 30 29 34 38 39 38 35 29 36 38 40
4 3 4 4 5 6 7 8 8 8 8 8 7 7 7 7 8 8 9 6 8 10 10 11 12 13 14 13 13 13 12 12 12 13 13 13 13 14 15 16 18 20 17 19 16 18 15 16 12 13 13 13 14 14 17 18 17 22 24 19 18 17 23 25 26 29 31 30 28 28 30 31 30 31 31 30 31 33 35 34 33 30 29 34 38
4 3 4 5 5 6 7 7 8 8 8 8 8 7 8 8 8 8 9 8 9 10 10 11 11 11 12 13 13 13 12 12 12 12 13 13 14 15 16 17 17 19 18 18 20 18 16 14 14 11 10 15 14 13 14 14 16 18 16 17 18 19 24 28 27 28 29 29 29 31 31 30 29 30 32 30 30 33 35 34 32 29 29 32 35
4 4 4 5 6 7 7 8 8 8 8 8 8 8 8 8 9 9 9 8 9 9 10 10 11 11 12 12 12 12 12 12 12 13 13 14 15 17 17 18 17 20 19 19 21 14 19 16 15 16 13 14 14 14 14 16 20 22 19 19 18 18 26 29 30 30 28 26 23 22 22 23 25 28 31 31 31 33 36 35 32 32 28 29 31
5 5 6 6 6 7 7 8 8 8 8 8 8 8 8 8 8 8 8 9 9 10 10 10 10 10 12 14 12 12 12 13 14 14 14 14 16 17 17 17 18 19 19 19 19 18 14 18 14 13 15 16 16 17 17 17 19 22 20 21 22 25 31 23 24 24 23 24 22 21 23 24 27 26 27 29 30 32 35 36 33 32 29 29 30
5 6 6 6 6 7 7 7 8 8 8 8 8 8 8 8 8 8 8 9 10 11 11 10 9 11 13 14 13 12 12 12 13 13 14 16 15 16 16 15 18 18 17 18 20 25 18 16 19 18 20 18 20 20 20 18 18 25 20 19 22 28 20 18 24 22 22 23 23 22 24 27 26 27 29 29 29 32 34 36 34 31 30 29 34
6 6 7 7 7 7 8 8 9 8 8 8 7 8 8 9 9 9 10 10 11 11 11 12 12 12 13 14 14 14 14 15 13 13 14 16 16 15 15 15 17 16 16 17 20 23 22 15 14 17 18 16 19 20 20 20 18 17 19 19 22 21 21 19 19 24 23 23 24 26 27 28 27 26 27 29 29 31 34 37 36 32 31 30 33
6 7 7 6 6 7 8 9 9 9 9 9 8 8 8 9 10 8 9 10 11 12 11 12 12 11 12 14 14 14 14 15 15 16 15 16 16 15 16 16 17 17 15 17 16 20 26 19 15 15 18 16 20 19 19 22 22 19 20 19 17 18 18 19 18 18 25 22 23 25 25 26 27 27 27 27 29 31 34 35 34 31 30 30 30
6 6 6 7 7 7 8 9 9 9 9 9 8 8 8 9 10 10 10 11 12 12 12 13 13 12 13 14 15 14 12 14 16 17 16 18 16 18 18 17 19 18 17 18 17 22 23 23 17 18 16 17 17 19 19 18 20 20 20 19 18 16 16 18 17 15 20 22 23 23 23 25 25 26 26 27 27 29 31 35 34 31 30 30 30
6 6 6 6 7 7 8 9 9 9 9 8 8 8 9 10 10 11 11 11 12 12 13 13 13 13 14 14 14 14 14 17 18 17 16 17 16 17 18 17 18 19 19 17 19 19 19 24 18 16 16 18 17 18 17 16 19 20 18 18 18 18 18 17 16 15 18 26 28 26 24 24 25 26 27 26 27 28 30 32 33 31 30 29 30
6 6 6 6 7 7 8 8 8 8 8 8 8 9 9 10 10 11 11 12 12 12 13 13 13 14 14 15 15 14 17 18 18 17 17 18 18 17 18 18 17 18 16 16 17 18 19 22 20 15 16 17 16 16 16 18 18 19 18 19 19 18 19 18 15 16 24 30 28 26 23 23 25 27 28 27 27 28 30 32 32 30 30 29 31
6 6 6 6 6 7 8 8 8 8 8 8 9 9 10 10 10 11 11 12 12 12 13 13 13 13 14 16 18 18 19 19 18 19 18 20 19 18 21 19 18 17 18 18 17 18 19 21 19 20 16 20 18 19 17 18 19 18 17 17 18 18 17 17 15 13 13 14 12 13 17 22 27 31 31 27 28 28 30 31 33 32 30 29 30
6 6 6 6 6 7 8 8 8 8 8 8 9 9 10 10 11 11 11 12 12 11 12 14 16 18 19 18 19 19 20 21 20 20 20 22 19 23 20 21 18 19 19 18 18 18 18 18 18 17 17 15 16 19 15 14 17 16 20 20 16 15 14 15 16 14 13 14 15 19 19 19 19 17 22 27 29 29 30 30 30 31 30 29 32
6 6 6 6 7 7 7 7 8 7 8 8 8 9 10 10 10 10 10 12 14 15 16 16 16 17 19 19 20 21 21 20 22 19 22 20 20 21 18 19 19 20 19 18 17 16 18 16 16 16 15 16 14 16 16 16 17 17 16 16 20 21 16 14 15 15 13 11 10 11 13 17 19 24 25 23 25 28 29 30 31 30 31 29 31
4 5 5 6 7 8 8 8 8 7 7 7 7 7 7 9 9 11 12 14 14 16 16 16 17 18 18 19 20 19 22 28 30 30 27 26 18 17 21 18 18 18 19 18 16 14 14 16 16 14 16 17 14 16 18 16 17 17 15 12 15 16 15 15 13 12 12 11 10 10 12 12 13 12 11 13 16 23 26 31 27 33 31 29 32
5 5 5 6 7 8 7 7 7 6 7 6 9 14 13 10 12 12 13 14 15 14 16 17 17 15 17 16 18 27 30 31 32 33 34 34 35 29 23 17 17 17 16 16 15 16 14 16 15 15 14 17 15 15 17 19 19 19 18 17 16 17 16 14 12 10 9 10 10 12 13 11 12 12 12 14 13 17 16 20 20 22 28 31 31
5 5 6 8 8 6 6 6 7 7 6 6 13 15 16 19 14 13 13 14 14 15 16 15 16 18 16 19 16 21 24 25 25 30 31 34 33 35 37 37 31 22 16 16 16 15 15 14 14 16 16 19 17 18 18 17 18 18 17 17 16 17 15 12 13 8 7 10 10 11 10 8 10 12 12 13 14 13 16 18 25 29 32 31 31
5 5 7 7 6 5 5 5 7 7 7 10 15 16 17 18 17 13 13 13 13 14 14 16 17 16 19 17 18 15 15 21 20 22 25 31 33 34 35 35 33 36 36 27 18 13 15 13 14 15 15 17 15 15 15 15 18 18 17 16 17 17 14 12 10 9 2 4 8 10 13 11 9 10 11 12 13 13 16 21 27 29 31 32 32
4 5 7 6 5 5 5 6 7 7 8 12 15 17 18 18 19 18 13 13 14 14 17 17 16 19 17 19 17 18 18 27 23 21 22 22 27 33 34 34 34 36 34 38 37 28 20 18 18 16 17 13 20 14 17 15 17 19 18 17 17 15 12 11 10 9 8 3 7 10 13 14 9 10 11 12 12 13 16 24 29 31 32 32 32
5 6 6 6 5 5 5 5 6 7 9 11 16 17 18 19 19 18 13 15 15 16 16 16 18 18 19 16 18 21 20 19 18 19 20 21 20 19 19 19 20 24 29 34 35 37 32 23 21 19 19 13 19 13 18 16 17 17 17 17 17 17 17 15 11 9 8 6 10 11 14 15 9 9 11 12 12 14 16 21 30 31 33 33 33
6 6 5 5 4 4 5 5 5 7 8 14 16 17 17 19 20 19 13 13 14 14 15 18 18 18 17 17 21 22 19 19 21 20 22 21 20 18 19 19 19 20 19 19 19 18 20 18 19 23 24 19 21 19 18 17 21 20 18 19 18 17 18 16 14 11 11 11 13 10 11 12 6 8 11 11 13 16 16 22 30 31 33 33 33
5 5 4 4 4 5 5 5 6 7 9 14 16 16 18 18 21 13 12 14 14 15 18 17 18 17 16 19 20 19 22 22 24 34 31 24 22 21 21 21 20 20 19 19 28 27 24 22 20 18 21 20 22 22 19 18 17 18 17 18 18 17 17 15 17 10 10 8 10 9 9 12 8 8 12 12 14 16 17 16 26 32 33 32 34
5 5 4 4 4 4 5 6 6 7 8 12 15 17 18 20 17 12 13 13 14 17 17 18 17 17 18 18 17 20 21 21 28 34 34 32 23 22 21 22 20 20 19 18 25 34 36 38 39 39 37 36 33 31 32 36 26 19 15 17 19 14 15 17 14 10 9 6 6 7 7 13 10 6 12 13 14 15 16 15 16 29 32 33 33
5 5 4 3 4 4 5 6 6 7 8 11 15 16 17 19 18 13 13 13 15 15 16 16 14 17 20 28 27 21 24 24 31 34 33 28 21 20 20 21 22 20 17 15 15 19 32 36 36 37 36 37 35 35 36 36 35 28 19 19 17 12 16 14 14 10 8 9 9 6 7 13 11 8 10 13 13 12 14 15 16 21 30 29 34
4 4 3 3 3 3 4 6 10 10 8 9 14 15 17 18 16 12 12 13 13 14 15 17 19 17 16 20 27 27 26 27 34 32 33 28 21 20 20 21 22 22 20 16 19 17 15 15 16 18 22 27 25 22 22 34 34 30 23 22 15 17 18 15 12 10 9 11 8 10 11 6 5 8 7 10 10 8 12 14 15 17 19 19 23
Wind_Direction
31 21 12 14 355 353 343 350 341 348 346 344 351 345 344 344 345 345 340 337 331 333 333 325 326 325 320 318 317 314 311 308 306 303 298 296 296 295 298 293 289 290 291 293 294 294 292 289 287 285 285 285 285 285 287 287 281 276 273 269 266 265 257 247 243 238 221 219 223 223 226 226 228 229 227 217 202 208 205 201 198 194 193 190 188
33 18 11 3 348 349 344 348 341 345 348 341 348 341 337 334 340 337 335 333 328 327 326 322 324 320 317 317 314 312 308 307 304 303 300 298 293 290 287 289 287 288 287 288 289 289 290 288 286 285 285 285 283 283 283 283 287 285 277 267 264 263 260 247 239 237 234 215 218 221 222 226 225 227 226 226 207 203 200 199 199 195 191 191 192
38 20 2 354 350 354 350 345 341 344 343 335 336 329 319 320 327 326 326 321 317 320 317 316 313 313 312 311 310 305 303 302 299 296 297 295 294 293 291 283 277 276 280 282 283 284 287 287 285 284 283 284 283 281 280 281 281 283 284 277 267 260 258 253 240 237 236 225 217 222 223 226 226 227 226 224 215 202 199 197 194 193 186 192 192
55 27 2 347 355 354 340 339 330 332 332 326 319 309 302 302 305 310 303 300 311 309 309 309 307 309 312 307 305 303 299 297 296 294 292 292 290 289 290 288 281 275 272 276 279 280 281 284 284 283 282 280 282 281 279 276 278 279 279 279 273 267 263 256 249 239 240 233 224 223 227 225 225 226 231 229 220 214 206 196 193 189 188 189 191
43 25 355 347 351 336 326 319 314 328 320 307 301 296 298 306 310 307 301 308 300 304 307 302 305 304 305 305 304 299 298 295 290 288 286 285 285 286 284 285 288 283 270 265 267 273 278 279 282 283 283 281 281 281 282 280 276 277 278 280 276 270 263 260 252 242 238 236 233 225 225 227 226 215 223 229 226 213 206 201 190 185 187 187 188
26 12 354 340 323 310 308 306 310 329 306 298 307 312 308 310 313 315 316 308 309 312 313 308 305 303 303 303 298 295 296 291 288 285 283 279 281 280 281 280 281 284 289 279 269 265 273 276 277 281 282 282 281 280 280 282 280 275 274 274 276 273 268 266 261 249 241 238 235 228 222 224 222 216 221 226 229 228 214 200 197 189 184 182 184
28 349 328 309 300 299 304 299 331 315 300 309 309 308 305 316 320 320 314 314 314 311 309 305 305 304 300 301 299 296 289 285 284 281 277 277 274 275 274 276 277 279 281 287 282 273 265 272 281 282 283 285 285 284 284 283 282 280 276 272 271 272 270 265 262 258 249 242 236 234 225 225 226 226 227 228 226 218 218 214 197 192 186 186 185
148 307 285 298 298 295 299 317 319 312 314 309 307 303 316 315 315 316 319 316 315 310 308 302 299 298 297 292 291 291 288 284 280 276 274 275 272 268 270 271 271 276 284 286 286 283 277 272 273 276 276 277 280 281 281 281 280 280 279 276 274 272 270 269 264 260 256 245 236 234 228 224 226 228 229 229 222 215 210 208 203 195 188 187 186
201 216 270 282 299 303 301 311 317 313 308 307 303 308 316 317 313 321 315 312 310 306 307 307 304 299 296 289 284 283 278 275 273 273 276 271 270 269 266 265 270 268 271 272 275 276 274 270 267 270 272 272 273 275 277 278 279 277 277 276 273 270 272 272 267 262 259 250 236 233 231 228 228 230 230 228 223 218 212 211 207 195 190 185 186
201 266 303 313 300 297 296 303 306 309 308 308 306 306 303 307 311 315 316 309 307 310 309 306 304 298 293 290 283 276 272 269 268 270 269 269 265 265 267 274 274 272 267 266 269 273 278 277 274 268 263 260 261 267 272 274 275 277 276 274 274 272 266 265 268 265 261 257 242 233 232 231 230 230 230 228 225 222 215 208 205 199 191 189 188
210 286 301 309 300 292 290 295 305 305 305 302 299 298 295 304 310 307 305 304 302 300 299 301 301 296 290 285 281 273 271 267 269 267 260 260 264 269 271 269 266 264 265 266 268 273 276 282 284 283 276 268 265 271 277 278 278 277 278 276 274 273 270 266 263 264 259 259 253 239 231 230 230 232 232 227 226 227 228 219 204 191 189 188 186
198 278 280 273 279 283 291 296 290 289 287 288 289 297 312 311 303 305 302 299 291 291 298 304 299 291 283 279 278 282 274 270 266 262 261 262 269 271 272 269 267 268 268 271 275 275 275 273 273 273 276 273 269 268 273 276 274 274 274 273 274 273 272 269 264 262 259 251 256 251 242 229 229 231 232 229 225 226 226 220 210 197 188 185 184
224 244 248 257 265 274 277 281 276 273 275 277 286 294 296 295 295 293 292 293 294 298 302 308 302 296 296 289 285 271 262 262 258 254 260 269 266 273 276 276 276 278 280 279 277 276 277 278 276 277 275 276 272 267 259 262 266 265 270 273 271 271 271 269 266 262 259 255 247 252 248 239 230 230 232 231 227 226 224 210 196 195 191 185 182
217 226 240 250 263 272 275 274 278 276 279 283 284 282 281 277 279 286 282 292 294 302 302 311 306 327 324 319 294 278 283 276 267 265 255 257 274 284 285 281 279 280 281 281 279 278 280 279 279 279 280 279 280 282 284 279 273 267 275 278 285 287 279 271 266 263 260 258 250 245 249 245 238 230 229 223 222 222 220 225 212 195 191 191 186
214 221 234 241 252 265 270 273 278 281 281 279 278 278 273 277 278 282 296 290 286 286 291 304 306 315 297 290 322 330 337 277 242 0 346 311 295 281 278 276 278 279 282 279 276 274 271 272 274 277 281 281 283 279 274 269 269 282 303 309 302 292 289 285 275 267 262 258 256 248 244 244 245 239 232 227 225 226 225 217 211 211 204 194 185
210 218 223 231 239 255 270 272 273 274 271 275 275 273 273 271 272 279 287 293 296 299 299 298 297 324 331 346 305 309 312 359 341 297 289 276 265 266 264 275 282 279 278 278 279 278 279 283 284 284 281 280 280 282 283 283 281 281 279 273 272 275 275 274 277 273 266 262 258 253 245 242 238 242 239 230 221 222 222 217 209 208 207 200 188
211 218 228 237 241 245 256 268 271 268 269 267 268 268 271 274 275 272 273 285 295 294 296 287 276 253 273 321 324 309 291 309 332 296 217 282 286 284 278 274 272 279 280 275 277 279 282 278 277 275 275 276 276 275 277 277 275 268 266 258 249 260 269 272 275 274 271 265 260 258 254 245 241 241 239 233 227 221 220 212 203 197 196 188 186
213 217 223 232 234 237 246 256 260 261 258 261 268 274 269 264 264 269 275 272 280 295 294 290 274 257 240 230 227 269 306 309 322 305 309 252 269 263 278 278 279 283 275 275 275 277 275 278 275 276 274 273 275 276 280 278 274 272 271 272 270 273 274 273 272 274 273 269 262 258 259 255 244 243 245 239 232 225 219 215 204 196 189 189 189
212 215 221 223 228 238 245 250 256 258 260 262 262 265 268 266 265 262 268 278 278 281 289 297 298 263 245 239 242 252 265 289 297 310 308 308 213 261 276 269 277 275 276 278 280 276 279 280 278 274 270 270 273 272 268 269 271 272 270 269 270 266 266 266 270 272 272 272 278 274 262 258 252 240 241 242 235 229 219 211 206 196 193 188 186
213 217 219 219 226 237 242 248 251 254 256 256 260 263 268 268 261 260 264 261 264 270 286 291 289 291 281 275 268 262 255 257 259 268 287 303 306 267 237 261 272 267 270 272 271 274 276 271 279 279 279 271 268 270 272 271 270 271 270 260 255 252 254 254 255 261 265 267 267 269 273 266 258 247 240 244 239 234 224 204 197 192 193 196 191
216 218 214 218 222 233 242 246 250 254 253 256 258 262 266 270 267 263 260 266 266 273 277 279 280 281 290 277 271 266 265 261 259 257 261 288 287 295 296 275 259 268 269 261 262 258 261 268 266 267 272 275 270 267 270 270 267 263 264 262 259 260 261 258 253 254 264 268 263 265 267 271 262 258 246 241 244 234 226 213 200 198 194 194 193
207 209 209 212 219 229 236 246 251 254 254 258 262 265 263 258 258 259 265 268 269 265 264 271 272 272 267 275 275 274 270 266 258 256 260 248 267 290 296 303 301 279 253 272 278 271 269 266 266 263 264 267 271 267 264 263 262 262 264 261 259 259 263 265 267 269 269 267 266 264 265 266 271 264 259 246 241 244 231 227 211 199 198 198 197
205 207 204 208 219 229 240 249 255 257 258 256 254 254 258 262 264 262 263 261 263 263 264 263 265 266 264 260 260 260 261 266 268 266 266 270 275 274 283 288 293 297 288 281 280 279 273 268 268 269 266 262 264 270 268 265 264 264 265 265 260 257 258 262 265 266 263 264 266 267 264 262 263 269 267 260 251 243 239 222 221 215 204 200 198
215 215 209 207 219 228 238 248 250 251 250 251 256 261 269 267 263 264 267 265 261 263 263 264 260 261 260 255 258 260 258 257 260 262 258 263 265 273 280 291 290 277 289 295 280 276 274 271 267 269 271 274 269 266 266 270 269 270 270 265 260 255 253 254 254 253 258 265 270 271 272 271 265 265 266 263 256 247 240 233 222 219 210 201 196
216 216 211 207 214 231 240 245 250 252 257 261 264 264 267 267 265 268 266 265 263 258 260 258 261 260 262 260 262 260 260 260 261 259 260 264 264 271 271 277 277 288 294 300 290 280 272 274 278 276 276 273 273 269 267 266 268 264 262 260 258 253 247 244 250 257 263 268 268 266 266 266 268 261 264 263 256 252 248 238 228 217 214 202 197
220 220 219 219 227 242 255 258 259 262 263 263 262 264 267 264 265 264 265 265 265 263 262 263 261 260 260 264 261 260 261 261 261 260 261 262 261 262 275 272 269 279 287 293 288 291 276 259 274 274 273 273 270 268 265 266 263 266 270 270 266 259 255 252 249 249 252 253 258 263 263 261 261 262 258 262 260 252 247 245 235 227 222 211 201
226 228 225 230 244 256 258 262 262 262 266 266 264 267 265 264 261 261 262 263 264 262 259 259 261 259 259 259 263 261 260 260 258 257 258 256 259 264 269 278 279 272 281 280 288 276 282 289 284 276 272 272 275 274 271 267 267 269 273 270 268 259 255 252 248 250 251 253 256 256 258 258 257 258 256 253 260 257 247 244 242 234 226 222 211
231 232 235 237 245 251 255 256 259 261 262 263 264 265 266 264 264 264 266 262 261 259 261 262 262 262 262 261 261 260 259 258 257 259 258 259 260 262 263 265 273 279 278 283 281 277 287 289 285 277 279 281 276 271 271 271 272 271 271 268 268 267 258 249 245 246 248 249 249 251 253 253 253 254 255 252 252 255 249 243 243 237 233 227 212
228 226 236 239 243 248 254 257 260 261 262 262 264 265 267 265 264 265 264 264 263 263 264 265 264 267 267 263 261 264 262 261 261 259 258 258 261 264 269 266 271 272 275 275 275 284 282 274 286 285 298 296 293 301 297 292 283 279 273 267 264 265 264 261 257 253 251 251 252 256 255 253 250 250 251 250 248 249 248 240 237 236 229 228 219
217 221 225 237 246 248 252 257 259 261 262 264 266 265 264 265 266 266 265 268 268 268 266 266 268 269 268 266 265 267 265 264 265 266 265 267 270 273 271 268 265 261 264 268 274 271 278 274 272 284 286 279 285 288 287 284 285 292 296 290 283 275 262 252 249 248 245 245 251 260 266 267 261 250 247 248 245 245 245 239 233 235 231 226 218
213 218 226 234 238 246 247 254 258 261 264 264 264 264 262 265 267 268 268 267 267 269 267 266 268 268 267 268 267 267 268 269 268 267 267 268 266 267 266 266 261 259 260 263 271 269 260 275 274 273 278 284 287 286 283 280 282 282 281 286 283 281 283 279 257 243 244 252 256 257 260 263 265 269 264 249 243 242 241 237 231 230 230 222 218
217 219 227 232 241 244 248 252 257 258 259 259 259 259 263 263 266 268 269 267 266 268 269 267 267 266 267 267 267 267 270 271 271 270 271 271 268 266 265 262 260 257 259 262 261 268 266 267 277 276 278 282 280 276 274 274 272 273 276 272 271 277 280 277 274 256 248 251 255 257 257 260 261 260 260 260 250 242 239 236 229 226 227 222 213
210 218 223 230 235 239 247 251 253 255 258 260 258 258 259 262 263 265 268 266 266 266 266 267 264 266 266 266 267 268 269 268 269 274 272 270 265 264 262 259 259 259 256 257 260 267 272 265 274 276 274 275 277 273 275 277 276 273 270 269 271 277 277 275 272 269 258 250 251 254 257 259 260 257 255 254 253 246 239 234 229 223 222 222 216
211 219 222 226 234 240 244 248 250 253 255 256 257 256 258 263 265 263 264 265 265 265 264 264 264 263 266 266 267 268 268 273 275 273 271 272 267 266 262 260 259 260 256 257 259 265 272 277 271 270 278 274 274 274 274 277 277 275 269 267 270 266 265 265 263 262 260 251 245 245 247 251 254 256 254 253 250 247 240 233 227 220 219 219 216
210 213 220 225 232 237 244 247 251 253 255 256 256 255 259 262 265 264 263 264 265 266 265 264 265 267 267 266 268 270 269 269 274 280 273 270 268 264 262 261 261 260 257 256 261 263 268 273 272 277 274 275 269 276 272 270 275 275 272 268 263 261 256 254 253 254 259 260 260 255 252 252 254 255 255 252 249 245 240 233 225 218 216 216 210
209 215 216 227 234 240 244 248 248 252 254 255 259 258 260 262 264 266 265 264 264 266 266 267 267 266 267 270 268 270 277 282 284 279 269 268 264 264 262 261 261 260 257 256 254 259 266 272 269 268 274 276 273 271 273 268 268 270 271 274 270 266 265 266 265 267 264 262 257 256 255 254 255 257 256 253 249 243 238 232 223 216 214 214 209
209 215 224 225 236 240 244 247 251 255 258 258 262 262 262 263 264 266 267 267 266 267 267 268 267 265 265 265 272 279 285 281 275 270 267 262 262 262 260 260 261 260 259 255 255 254 261 265 271 265 265 267 269 272 273 281 279 274 271 266 266 267 268 265 263 260 260 255 252 253 254 255 257 257 255 253 249 242 236 229 223 215 213 213 209
210 218 224 234 233 242 247 252 255 259 263 262 263 264 265 265 266 266 267 267 268 269 269 270 267 265 269 277 283 280 278 269 267 267 263 260 259 257 259 260 259 259 259 257 255 257 258 264 269 275 268 272 276 270 264 261 268 276 277 268 263 262 264 267 261 259 258 250 246 250 253 251 250 251 251 247 247 242 233 228 220 213 210 208 208
209 219 227 232 238 242 249 251 256 260 264 264 265 266 266 269 270 271 275 275 275 274 274 276 280 279 278 274 273 271 267 264 259 263 262 260 255 256 252 255 255 258 259 256 256 256 257 262 267 266 271 268 270 276 272 262 260 258 267 276 276 266 260 258 262 259 250 249 247 250 254 258 256 250 243 238 239 239 232 224 219 211 206 206 204
211 222 228 234 242 244 250 252 256 262 264 263 266 267 269 272 276 276 278 280 284 282 280 275 272 271 269 265 266 265 261 257 259 252 258 256 254 254 250 252 253 256 253 254 254 253 255 255 259 265 265 271 274 278 281 277 272 263 254 258 269 272 265 256 250 252 249 246 252 257 255 253 249 250 253 248 236 232 228 222 218 210 205 201 203
214 222 233 240 246 249 249 254 259 262 263 265 263 263 268 277 279 284 286 285 284 284 281 279 278 275 271 269 266 264 260 258 257 257 257 258 254 258 256 251 252 257 258 255 252 248 253 256 256 257 264 261 263 278 282 280 272 270 275 262 264 271 273 267 259 249 256 262 258 258 259 256 257 249 240 238 234 227 224 219 214 209 204 201 199
216 224 233 244 244 246 253 257 263 266 266 263 263 268 272 278 286 288 289 287 286 282 282 283 279 275 277 277 278 275 278 278 276 274 269 267 264 259 252 246 248 247 250 250 249 248 242 249 254 252 250 259 260 262 268 275 283 281 272 265 260 260 258 256 257 252 245 251 261 260 254 244 244 248 245 244 235 216 219 213 212 207 203 198 200
218 227 235 240 241 244 249 261 270 268 267 267 272 277 282 287 290 292 290 289 286 286 284 283 284 287 288 286 282 284 283 281 281 280 277 277 275 274 268 258 250 248 247 246 243 242 245 242 241 246 253 253 253 267 266 273 271 280 287 293 283 268 260 256 259 259 222 240 251 261 263 252 230 237 240 243 237 221 212 212 207 204 199 198 198
218 225 236 239 242 251 256 265 269 271 272 273 281 286 290 293 295 293 292 291 290 287 287 289 290 292 291 289 288 284 284 284 284 283 281 278 278 277 276 277 276 264 255 254 251 242 241 247 245 235 239 244 252 244 254 263 269 269 266 266 271 275 263 258 259 264 271 8 329 310 294 287 286 277 269 248 237 227 214 209 203 201 198 196 197
218 230 235 239 242 251 259 262 268 274 276 281 286 291 296 298 300 299 293 291 290 289 293 291 292 291 291 290 290 292 289 289 285 282 278 279 278 277 277 277 275 274 271 264 261 260 257 255 255 257 248 258 262 255 257 254 267 273 276 275 278 281 275 271 270 280 287 344 310 293 287 284 275 264 264 257 244 230 216 206 201 197 198 196 196
224 235 236 241 245 249 257 269 276 277 278 281 289 296 302 304 304 304 298 297 295 292 290 291 291 290 289 287 292 290 290 286 283 284 281 278 276 276 272 270 270 269 268 267 268 268 266 263 262 262 260 254 257 259 259 257 258 261 269 276 280 281 282 282 287 284 289 305 279 283 280 277 265 263 264 270 255 233 219 206 198 195 197 195 193
220 227 231 231 242 246 262 268 269 274 272 280 292 302 306 308 308 310 304 299 295 291 290 289 288 286 285 287 289 288 285 289 287 283 284 281 277 272 270 267 264 265 264 264 262 259 259 252 256 258 261 258 261 257 257 256 255 256 257 266 273 276 283 290 286 273 279 265 255 241 262 274 278 273 273 274 266 234 215 204 197 194 195 194 193
227 233 237 240 249 254 257 264 270 277 279 288 300 307 311 312 313 311 305 301 298 295 293 291 292 288 286 287 287 287 290 287 290 290 289 287 283 280 274 269 265 262 259 258 263 261 259 256 253 252 257 254 251 254 254 255 257 258 260 262 263 263 266 267 268 273 255 242 212 231 260 277 271 273 281 276 261 231 209 204 194 193 192 191 191
221 223 227 242 245 255 261 260 268 276 282 291 303 311 312 314 316 310 307 303 299 296 292 294 291 292 292 289 292 295 293 294 295 294 293 291 287 283 279 276 272 268 264 261 259 261 261 263 257 254 253 251 249 247 253 255 257 254 253 256 254 255 262 264 267 260 259 239 221 218 258 275 268 264 277 268 258 230 207 198 192 192 190 189 189
219 216 226 241 248 248 257 263 269 278 282 291 303 310 312 312 314 312 309 305 300 296 295 292 296 297 296 300 300 297 297 295 294 294 294 294 290 287 286 282 280 275 268 266 259 261 257 261 257 262 263 261 261 258 259 261 261 257 247 247 249 254 257 256 262 262 271 265 253 195 246 253 274 263 263 271 255 229 205 194 187 190 187 187 187
222 219 221 241 251 266 260 264 271 278 280 288 301 307 310 312 314 311 308 306 297 297 299 302 303 298 301 300 299 299 298 295 297 298 298 297 291 286 283 280 278 275 273 271 266 265 259 256 249 253 254 257 258 254 255 259 261 255 247 249 249 243 252 257 261 270 273 263 254 200 225 265 308 281 292 280 250 225 203 189 185 183 185 183 184